Location: Bowman Observatory
(41.0326°N, 73.6210°W)
Time: 05:22:34
(UTC-04:00)

Cosmos 2297 - Visible Passes

Search period start: 26 March 2017 00:00
Search period end: 05 April 2017 00:00
Orbit: 834 x 861 km, 71.0° (Epoch: 24 March)

Date Brightness Start Highest point End Pass type
(mag) Time Alt. Az. Time Alt. Az. Time Alt. Az.
26 Mar 6.6 04:43:50 10° NNE 04:47:09 15° NE 04:50:26 10° E visible
26 Mar 4.6 19:35:36 10° SSE 19:40:13 26° ESE 19:44:54 10° NE visible
26 Mar 4.8 21:18:39 10° SW 21:24:06 45° WNW 21:29:37 10° NNE visible
27 Mar 6.7 04:30:34 10° NNE 04:33:47 15° NE 04:37:00 10° E visible
27 Mar 3.9 06:13:03 10° NNW 06:18:51 86° ENE 06:24:33 10° SSE visible
27 Mar 4.8 21:05:17 10° SW 21:10:45 46° WNW 21:16:17 10° NNE visible
28 Mar 6.7 04:17:16 10° NNE 04:20:26 15° NE 04:23:34 10° E visible
28 Mar 3.9 05:59:43 10° NNW 06:05:30 85° ENE 06:11:13 10° SSE visible
28 Mar 4.8 20:51:55 10° SW 20:57:24 47° WNW 21:02:57 10° NNE visible
29 Mar 6.7 04:03:59 10° NNE 04:07:03 14° NE 04:10:08 10° E visible
29 Mar 3.9 05:46:23 10° NNW 05:52:10 83° ENE 05:57:53 10° SSE visible
29 Mar 4.8 20:38:33 10° SW 20:44:03 48° WNW 20:49:37 10° NNE visible
30 Mar 6.7 03:50:41 10° NNE 03:53:42 14° NE 03:56:41 10° ENE visible
30 Mar 3.9 05:33:02 10° NNW 05:38:49 81° ENE 05:44:31 10° SSE visible
30 Mar 4.8 20:25:12 10° SW 20:30:42 49° WNW 20:36:17 10° NNE visible
31 Mar 6.7 03:37:25 10° NNE 03:40:20 14° NE 03:43:15 10° ENE visible
31 Mar 3.9 05:19:42 10° NNW 05:25:29 80° ENE 05:31:11 10° SSE visible
31 Mar 4.8 20:11:50 10° SW 20:17:22 50° WNW 20:22:57 10° NNE visible
01 Apr 6.7 03:24:08 10° NNE 03:26:59 14° NE 03:29:49 10° ENE visible
01 Apr 3.9 05:06:22 10° NNW 05:12:08 78° ENE 05:17:51 10° SSE visible
01 Apr 4.8 19:58:28 10° SW 20:04:01 51° WNW 20:09:38 10° NNE visible
02 Apr 6.6 03:10:51 10° NNE 03:13:37 13° NE 03:16:21 10° ENE visible
02 Apr 3.9 04:53:01 10° NNW 04:58:48 77° ENE 05:04:29 10° SSE visible
02 Apr 4.8 19:45:07 10° SW 19:50:40 52° WNW 19:56:18 10° NNE visible
03 Apr 6.6 02:57:35 10° NNE 03:00:15 13° NE 03:02:54 10° ENE visible
03 Apr 3.9 04:39:41 10° NNW 04:45:28 75° ENE 04:51:09 10° SSE visible
04 Apr 6.6 02:44:19 10° NNE 02:46:54 13° NE 02:49:27 10° ENE visible
04 Apr 3.9 04:26:21 10° NNW 04:32:07 74° ENE 04:37:48 10° SSE visible
